Regional Weather Roundup
Issued by NWS

Home | Current Version | Previous Version | Text Only | Print | Product List | Glossary On
Versions: 1 2 3 4 5 6 7 8 9 10 11 12 13 14 15 16 17 18 19 20 21 22 23 24 25 26 27
000
ASUS42 KTBW 210716
RWRFL
FLORIDA REGIONAL WEATHER ROUNDUP
NATIONAL WEATHER SERVICE TAMPA BAY RUSKIN FL
200 AM EST TUE NOV 21 2017

NOTE: "FAIR" INDICATES FEW OR NO CLOUDS BELOW 12,000 FEET WITH NO
SIGNIFICANT WEATHER AND/OR OBSTRUCTIONS TO VISIBILITY.

FLZ001>010-012>015-112-114-115-210800-
PANHANDLE FLORIDA

CITY           SKY/WX    TMP DP  RH WIND       PRES   REMARKS
PENSACOLA      PTCLDY    48  39  71 N5        30.09F
PENSACOLA NAS  CLOUDY    48  39  71 NE5       30.08F
MILTON NAS     CLOUDY    37  37 100 NE6       30.10  WCI  32
CRESTVIEW      CLOUDY    37  35  92 CALM      30.12F
DUKE FIELD     FAIR      38  35  87 CALM      30.10F
VALPARAISO     MOCLDY    47  35  62 N8        30.09F WCI  43
MARY ESTHER    MOCLDY    43  38  81 N8        30.08F WCI  38
PANAMA CITY    FAIR      45  40  82 NW6       30.09F WCI  42
TYNDALL AFB    PTCLDY    49  43  77 N5        30.09F
APALACHICOLA   MOCLDY    51  47  86 N5        30.06F

STATION/POSITION SKY/WX   TEMP    WIND        PRES    WAVE   SWELL
                          AIR SEA DIR/SP/G            HT/PER HT/PER
                          (F)     (DEG/KT/KT) (MB)    (FT/S) (FT/S)
29.2N   88.2W              67      70/  8/ 12 1017.5
28.8N   86.0W              68 77   50/ 16/ 17 1017.2F   2/ 6
PANAMA CITY BEAC           49 70  350/  9/ 11 1019.4F
TOWER C                    70     140/ 19/ 21 1017.6F
28.5N   84.5W              72 76  130/ 17/ 21 1016.4F   4/ 5

$$
FLZ011-016>038-118-127-128-134-139-239-210800-
NORTH FLORIDA

CITY           SKY/WX    TMP DP  RH WIND       PRES   REMARKS
MARIANNA       PTCLDY    44  40  85 CALM      30.09F
TALLAHASSEE    PTCLDY    46  44  93 NW3       30.09F
PERRY          PTCLDY    55  53  92 CALM      30.09F
LIVE OAK       CLOUDY    54  54 100 NE5       30.11F
CROSS CITY     MOCLDY    54  53  99 CALM      30.13F
LAKE CITY      FAIR      54  52  94 NE3       30.11F
GAINESVILLE    CLOUDY    50  49  96 CALM      30.12F
WILLISTON      CLEAR     59  57  94 CALM      30.08F
PALATKA        MOCLDY    54  54 100 CALM      30.10F
MAYPORT NAS    MOCLDY    69  58  67 E10       30.11F
JACKSONVILLE   CLOUDY    60  56  86 N3        30.11F
JAX NAS        CLOUDY    66  58  75 CALM      30.11F
JAX CECIL        N/A     55  55 100 MISG      30.10F
ST AUGUSTINE   CLOUDY    68  60  75 SE10      30.11F
PALM COAST     FAIR      68  56  66 SE8       30.09F

STATION/POSITION SKY/WX   TEMP    WIND        PRES    WAVE   SWELL
                          AIR SEA DIR/SP/G            HT/PER HT/PER
                          (F)     (DEG/KT/KT) (MB)    (FT/S) (FT/S)
SHELL POINT      NOT AVBL
KEATON BEACH               56      50/  6/  9 1017.9F
CEDAR KEY                  63      70/  6/  7 1018.3F
FERNANDINA                 69 65  100/  4/  7 1020.6F
30.7N   81.3W                 67                N/A     4/ 5
MAYPORT                    69 66  110/  6/  8 1019.9F
31.4N   80.9W              70 67  120/ 14/ 16 1020.4F   4/ 5   2/ 8
ST AUGUSTINE               71 67  130/ 14/ 16 1019.3F

$$
FLZ040-043>046-052-053-057-058-063-144-210800-
INTERIOR CENTRAL FLORIDA

CITY           SKY/WX    TMP DP  RH WIND       PRES   REMARKS
OCALA          PTCLDY    54  54 100 N3        30.09F
THE VILLAGES     N/A     59  57  94 CALM      29.98F FOG
LEESBURG       CLOUDY    63  59  87 NE5       30.09F
SANFORD        MOCLDY    62  57  83 CALM      30.07F
ORLANDO EXEC   MOCLDY    65  58  78 NE3       30.07F
ORLANDO INTL   MOCLDY    63  59  87 N3        30.07F
KISSIMMEE      MOCLDY    65  58  78 CALM      30.07F
WINTER HAVEN   CLEAR     61  58  90 NE6       30.07F
BARTOW         FAIR      61  61 100 NE6       30.06S
SEBRING        FAIR      64  58  82 NE3       30.04F
OKEECHOBEE     CLEAR     63  61  94 CALM      30.03F

$$
FLZ041-047-054-059-064-141-147-210800-
EAST CENTRAL FLORIDA

CITY           SKY/WX    TMP DP  RH WIND       PRES   REMARKS
DAYTONA BEACH  PTCLDY    71  58  63 E6        30.08F
DELAND         CLOUDY    57  55  94 N3        30.08S
JFK SPACE CTR  MOCLDY    71  62  72 SE8       30.05F
CAPE CANAVERAL PTCLDY    72  59  63 E14       30.04F
PATRICK AFB    MOCLDY    73  62  69 E15       30.04F
MELBOURNE      CLOUDY    74  61  63 E14       30.04F
VERO BEACH     CLOUDY    74  63  68 E13       30.04F
FT PIERCE      CLOUDY    74  64  71 E14       30.03F
STUART         CLOUDY    77  64  65 E16G22    30.03F

STATION/POSITION SKY/WX   TEMP    WIND        PRES    WAVE   SWELL
                          AIR SEA DIR/SP/G            HT/PER HT/PER
                          (F)     (DEG/KT/KT) (MB)    (FT/S) (FT/S)
28.5N   80.2W              75 78  100/ 19/ 23 1017.7F   6/ 7   2/11
TRIDENT PIER                       90/  8/ 13   N/A
27.5N   80.2W                 75                N/A     6/ 7

$$
FLZ050-056-061-142-242-148-248-149-249-151-251-155-255-
160-260-210800-
WEST CENTRAL FLORIDA

CITY           SKY/WX    TMP DP  RH WIND       PRES   REMARKS
CRYSTAL RIVER  FAIR      61  55  82 E3        30.06F
INVERNESS      FAIR      57  55  94 CALM      30.07F
BROOKSVILLE    CLOUDY    63  56  78 E7        30.07F
CLEARWATER AIR FAIR      63  55  77 E6        30.04F
ST PETE CLEARW MOCLDY    66  60  81 E8        30.04F
TAMPA INTL     PTCLDY    66  57  72 E6        30.05F
TAMPA EXEC     CLEAR     59  55  88 CALM      30.06F
PLANT CITY     CLEAR     63  57  82 NE5       30.07F
MACDILL AFB    LGT RAIN  64  62  96 E10       30.04F
PETER O KNIGHT   N/A     63  59  88 NE7       30.05F
ST PETERSBURG  PTCLDY    68  61  78 E13       30.03F
SARASOTA       PTCLDY    63  59  87 E8        30.02F
VENICE         FAIR      64  59  82 NE9       30.02F

STATION/POSITION SKY/WX   TEMP    WIND        PRES    WAVE   SWELL
                          AIR SEA DIR/SP/G            HT/PER HT/PER
                          (F)     (DEG/KT/KT) (MB)    (FT/S) (FT/S)
27.3N   84.2W                 77                N/A     4/ 5
CLEARWATER BEACH           66 69   70/  6/  8 1017.5F
MIDDLE TAMPA BAY           67      90/ 11/ 12 1017.4F
VENICE                     64 71   60/  8/ 10 1016.6F

$$
FLZ066-069-070-075>078-162-262-165-265-210800-
SOUTHWEST FLORIDA AND KEYS

CITY           SKY/WX    TMP DP  RH WIND       PRES   REMARKS
PUNTA GORDA    MOCLDY    62  58  86 E6        30.03F
FT MYERS       CLEAR     66  62  87 E6        30.00F
SOUTHWEST INTL CLEAR     64  63  96 NE5       30.01F
NAPLES         CLEAR     66  62  87 E7        29.99F
MARCO ISLAND   PTCLDY    66  63  90 NE7       30.00F
IMMOKALEE      MOCLDY    63  63 100 NE3       30.01F
MARATHON       PTCLDY    74  68  81 E6        29.96F
KEY WEST NAS     N/A    N/A N/A N/A MISG      29.97F
KEY WEST INTL  CLEAR     73  71  93 NE6       29.97F

STATION/POSITION SKY/WX   TEMP    WIND        PRES    WAVE   SWELL
                          AIR SEA DIR/SP/G            HT/PER HT/PER
                          (F)     (DEG/KT/KT) (MB)    (FT/S) (FT/S)
NAPLES                        74   60/  4/  7 1015.8F
DRY TORTUGAS               76     100/ 13/ 15 1014.6F
SAND KEY                   74                 1015.3F
MOLASSES REEF              77 79  130/ 14/ 17 1015.0F

$$
FLZ067-068-071>074-168-172>174-210800-
SOUTHEAST FLORIDA

CITY           SKY/WX    TMP DP  RH WIND       PRES   REMARKS
W PALM BEACH   PTCLDY    75  65  70 E18G24    30.01F
FT LAUDER-EXEC CLOUDY    75  68  78 NE16      29.98F
FT LAUDERDALE  CLOUDY    76  70  82 E18G28    29.97F
POMPANO BEACH  CLOUDY    77  68  73 NE18G28   29.98F
PEMBROKE PINES HVY RAIN  72  70  93 E8        30.00F FOG
OPA LOCKA      RAIN      71  71 100 SE6       29.99F
MIAMI          CLOUDY    72  71  97 E6        29.99S
WEST KENDALL   CLOUDY    71  69  93 NE7       29.98F
HOMESTEAD      CLOUDY    72  72 100 CALM      29.97F

STATION/POSITION SKY/WX   TEMP    WIND        PRES    WAVE   SWELL
                          AIR SEA DIR/SP/G            HT/PER HT/PER
                          (F)     (DEG/KT/KT) (MB)    (FT/S) (FT/S)
PORT EVERGLADES            77      60/ 21/ 25 1014.9F
VIRGINIA KEY               75 78   80/ 14/ 18 1014.9F
LAKE WORTH                 76 78   70/ 20/ 24 1017.0F
FOWEY ROCKS                74 78   90/ 18/ 19 1015.3F
SETTLEMENT POINT           74      80/ 18/ 20 1016.3F

$$





USA.gov is the U.S. government's official web portal to all federal, state and local government web resources and services.